Regional Weather Roundup
Issued by NWS

Home | Current Version | Previous Version | Text Only | Print | Product List | Glossary On
Versions: 1 2 3 4 5 6 7 8 9 10 11 12 13 14 15 16 17 18 19 20 21 22 23 24 25 26 27 28 29 30 31 32 33 34 35 36 37 38 39 40 41 42 43 44 45 46 47 48 49 50
000
ASUS43 KDMX 291707
RWRIA

WEATHER ROUNDUP FOR IOWA
NATIONAL WEATHER SERVICE DES MOINES IA
1200 PM CDT FRI MAY 29 2015

NOTE: "FAIR" INDICATES FEW OR NO CLOUDS BELOW 12,000 FEET WITH NO
SIGNIFICANT WEATHER AND/OR OBSTRUCTIONS TO VISIBILITY.

* - THESE STATIONS ARE NOT NWS STATIONS...THUS NOT UNDER NWS
QUALITY CONTROL.  THEY ALSO DO NOT REPORT WEATHER SUCH
AS PRECIPITATION OR FOG.

IAZ001>003-012>014-020>022-031>034-043>046-291800-
   NORTHWEST IOWA

CITY           SKY/WX    TMP DP  RH WIND       PRES   REMARKS
CARROLL *      MOSUNNY   72  66  83 SW14      29.91S
CHEROKEE *     CLOUDY    72  64  78 SW7       29.89F
DENISON *      SUNNY     72  68  88 S12G18    29.90S
LE MARS *      CLOUDY    68  63  83 W6        29.91S
ORANGE CITY *  MOSUNNY   66  61  82 CALM      29.89F
SHELDON *      CLOUDY    66  66 100 CALM      29.88F FOG
SIOUX CITY     CLOUDY    72  60  66 W9        29.90R
SPENCER        CLOUDY    72  65  78 W12       29.90F
STORM LAKE *   SUNNY     73  63  68 SW17      29.91S
$$

IAZ055>058-069>071-079>083-090>094-291800-
   SOUTHWEST IOWA

CITY           SKY/WX    TMP DP  RH WIND       PRES   REMARKS
ATLANTIC *     CLOUDY    70  66  88 S10       29.94R
AUDUBON *      MOSUNNY   72  66  83 S9        29.94S
CLARINDA *     CLOUDY    70  66  88 S12       29.97F
COUNCIL BLFS * SUNNY     72  66  83 SW10G18   29.93S
CRESTON *      PTSUNNY   68  68 100 SW20G26   29.97S
HARLAN  *      PTSUNNY   72  72 100 SW10      29.96S
LAMONI         CLOUDY    72  64  76 SW10      29.98R
RED OAK *      CLOUDY    72  66  83 S10       29.94S
SHENANDOAH *   PTSUNNY   72  68  88 S14       29.95S
$$

IAZ047>049-059>061-072>074-084-291800-
   CENTRAL IOWA

CITY           SKY/WX    TMP DP  RH WIND       PRES   REMARKS
AMES           CLOUDY    71  65  81 S9        29.93F
ANKENY *       MOSUNNY   73  66  78 S8        29.94S
CHARITON *     CLOUDY    72  66  83 SW9G16    29.97R
DES MOINES     CLOUDY    73  65  75 S9        29.94R
GRINNELL*      CLOUDY    73  64  73 S9        29.95F
KNOXVILLE *      N/A     73  64  73 SW9       29.95R
MARSHALLTOWN   CLOUDY    74  64  71 S10       29.93F
PELLA *        CLOUDY    75  70  83 SW7       29.96S
PERRY *        PTSUNNY   70  66  88 S10       29.93R
$$

IAZ004>006-015-016-023>025-035-036-291800-
   NORTH CENTRAL IOWA

CITY           SKY/WX    TMP DP  RH WIND       PRES   REMARKS
ALGONA *       CLOUDY    68  66  94 SW12      29.91F
CLARION *      PTSUNNY   70  64  83 SW8       29.92F
ESTHERVILLE    CLOUDY    67  64  90 SW10      29.89F
FORT DODGE *   CLOUDY    72  63  73 SW7       29.92F
MASON CITY     CLOUDY    71  65  81 S10       29.93F
FOREST CITY *  PTSUNNY   68  64  88 SW13      29.92S
IOWA FALLS *   PTSUNNY   73  64  73 S7        29.94F
$$

IAZ007>011-017>019-026>030-037>042-050>054-066-291800-
   NORTHEAST IOWA

CITY           SKY/WX    TMP DP  RH WIND       PRES   REMARKS
CEDAR RAPIDS   CLOUDY    72  67  84 SW7       29.95S
CHARLES CITY * CLOUDY    72  66  83 W5        29.94F
CLINTON *      CLOUDY    75  68  78 S14       29.98F
DECORAH *      MOSUNNY   75  64  69 VRB7G14   29.93F
DUBUQUE        CLOUDY    73  67  81 S9        29.96R
MONTICELLO *   CLOUDY    75  70  83 VRB7      29.95S
OELWEIN *      PTSUNNY   75  64  69 S12G18    29.95S
WATERLOO       CLOUDY    76  63  64 SW13      29.92F
$$

IAZ064-065-067-068-078-291800-
   EAST CENTRAL IOWA

CITY           SKY/WX    TMP DP  RH WIND       PRES   REMARKS
DAVENPORT      PTSUNNY   73  66  78 S13       29.96F
IOWA CITY      CLOUDY    74  67  78 W9        29.96F
MT. PLEASANT * CLOUDY    75  66  73 S10       29.98S
MUSCATINE *    PTSUNNY   79  66  65 SW8       29.95F HX  81
QUAD CITIES    PTSUNNY   74  68  81 S7        29.95F
$$

IAZ062-063-075>077-085>089-095>099-291800-
   SOUTHEAST IOWA

CITY           SKY/WX    TMP DP  RH WIND       PRES   REMARKS
BURLINGTON     CLOUDY    72  68  87 S12       29.98S
FAIRFIELD *    PTSUNNY   75  66  73 SW8       29.97F
FORT MADISON * CLOUDY    72  66  83 S9        30.00R
KEOKUK *       CLOUDY    73  68  83 SW9G16    29.99S
OSKALOOSA *      N/A     73  66  78 S9        29.97S
CENTERVILLE *  MOSUNNY   75  75 100 S9        29.98F
OTTUMWA        CLOUDY    74  67  78 SW8       29.95S
WASHINGTON *   CLOUDY    73  68  83 SW9       29.98S
$$

ABBREVIATIONS USED IN REMARKS
   TC - TEMPERATURES IN CELSIUS
  WCI - WIND CHILL INDEX
   HX - HEAT INDEX
  VSB - VISIBILITY
$$



USA.gov is the U.S. government's official web portal to all federal, state and local government web resources and services.